owner,sensor,date,latitude,longitude,vertical_datum,direction_of_sea_water_velocity,sea_water_speed,upward_sea_water_velocity,qcFlag 
TABS,ioos:station:wmo:42045:1,2014-08-22T00:00:00Z,26.2168,-96.4998,2.0,53.81618953,9.688694442,-99999.0,'11133222,11111222,99999999' 
TABS,ioos:station:wmo:42045:1,2014-08-22T00:30:00Z,26.2168,-96.4998,2.0,319.8148291,43.64104948,-99999.0,'11111222,11111222,99999999' 
TABS,ioos:station:wmo:42045:1,2014-08-22T01:00:00Z,26.2168,-96.4998,2.0,77.61927202,2.098809186,-99999.0,'11133222,11111222,99999999' 
TABS,ioos:station:wmo:42045:1,2014-08-22T01:30:00Z,26.2168,-96.4998,2.0,64.23870476,42.40449269,-99999.0,'11111222,11111222,99999999' 
TABS,ioos:station:wmo:42045:1,2014-08-22T02:00:00Z,26.2168,-96.4998,2.0,127.1711434,32.7044523,-99999.0,'11111222,11111222,99999999' 
TABS,ioos:station:wmo:42045:1,2014-08-22T02:30:00Z,26.2168,-96.4998,2.0,133.2754425,30.54670522,-99999.0,'11111222,11111222,99999999' 
TABS,ioos:station:wmo:42045:1,2014-08-22T03:00:00Z,26.2168,-96.4998,2.0,81.31937763,38.56172714,-99999.0,'11111222,11111222,99999999' 
TABS,ioos:station:wmo:42045:1,2014-08-22T03:30:00Z,26.2168,-96.4998,2.0,127.4637472,27.01145128,-99999.0,'11111222,11111222,99999999' 
TABS,ioos:station:wmo:42045:1,2014-08-22T04:00:00Z,26.2168,-96.4998,2.0,156.2588616,32.04151838,-99999.0,'11111222,11111222,99999999' 
TABS,ioos:station:wmo:42045:1,2014-08-22T04:30:00Z,26.2168,-96.4998,2.0,350.4845489,19.41717281,-99999.0,'11111222,11111222,99999999' 
TABS,ioos:station:wmo:42045:1,2014-08-22T05:00:00Z,26.2168,-96.4998,2.0,158.6531488,27.1420854,-99999.0,'11111222,11111222,99999999' 
TABS,ioos:station:wmo:42045:1,2014-08-22T05:30:00Z,26.2168,-96.4998,2.0,69.02136101,37.76318313,-99999.0,'11111222,11111222,99999999' 
TABS,ioos:station:wmo:42045:1,2014-08-22T06:00:00Z,26.2168,-96.4998,2.0,302.6601953,23.29285298,-99999.0,'11111222,11111222,99999999' 
TABS,ioos:station:wmo:42045:1,2014-08-22T06:30:00Z,26.2168,-96.4998,2.0,51.63364443,17.99613847,-99999.0,'11111222,11111222,99999999' 
TABS,ioos:station:wmo:42045:1,2014-08-22T07:00:00Z,26.2168,-96.4998,2.0,301.6078493,21.06478578,-99999.0,'11111222,11111222,99999999' 
TABS,ioos:station:wmo:42045:1,2014-08-22T07:30:00Z,26.2168,-96.4998,2.0,139.1645577,5.841985964,-99999.0,'11133222,11111222,99999999' 
TABS,ioos:station:wmo:42045:1,2014-08-22T08:00:00Z,26.2168,-96.4998,2.0,177.959586,11.79747854,-99999.0,'11111222,11111222,99999999' 
TABS,ioos:station:wmo:42045:1,2014-08-22T08:30:00Z,26.2168,-96.4998,2.0,158.9320171,19.00004737,-99999.0,'11111222,11111222,99999999' 
TABS,ioos:station:wmo:42045:1,2014-08-22T09:00:00Z,26.2168,-96.4998,2.0,329.7302188,57.51112066,-99999.0,'11111222,11111222,99999999' 
TABS,ioos:station:wmo:42045:1,2014-08-22T09:30:00Z,26.2168,-96.4998,2.0,69.48726413,34.10228878,-99999.0,'11111222,11111222,99999999' 
TABS,ioos:station:wmo:42045:1,2014-08-22T10:00:00Z,26.2168,-96.4998,2.0,299.4830034,19.2417099,-99999.0,'11111222,11111222,99999999' 
TABS,ioos:station:wmo:42045:1,2014-08-22T10:30:00Z,26.2168,-96.4998,2.0,3.350816622,46.70984693,-99999.0,'11111222,11111222,99999999' 
TABS,ioos:station:wmo:42045:1,2014-08-22T11:00:00Z,26.2168,-96.4998,2.0,61.72934272,6.460626905,-99999.0,'11133222,11111222,99999999' 
TABS,ioos:station:wmo:42045:1,2014-08-22T11:30:00Z,26.2168,-96.4998,2.0,341.5920826,60.89598755,-99999.0,'11111222,11111222,99999999' 
TABS,ioos:station:wmo:42045:1,2014-08-22T12:00:00Z,26.2168,-96.4998,2.0,174.8404835,10.34190021,-99999.0,'11111222,11111222,99999999' 
TABS,ioos:station:wmo:42045:1,2014-08-22T12:30:00Z,26.2168,-96.4998,2.0,32.45589573,48.41159882,-99999.0,'11111222,11111222,99999999' 
TABS,ioos:station:wmo:42045:1,2014-08-22T13:00:00Z,26.2168,-96.4998,2.0,127.754425,41.7129716,-99999.0,'11111222,11111222,99999999' 
TABS,ioos:station:wmo:42045:1,2014-08-22T13:30:00Z,26.2168,-96.4998,2.0,108.9246002,29.23,-99999.0,'11111222,11111222,99999999' 
TABS,ioos:station:wmo:42045:1,2014-08-22T14:00:00Z,26.2168,-96.4998,2.0,284.2872044,19.41031169,-99999.0,'11111222,11111222,99999999' 
TABS,ioos:station:wmo:42045:1,2014-08-22T14:30:00Z,26.2168,-96.4998,2.0,20.20050799,113.117767,-99999.0,'11111222,11111222,99999999' 
TABS,ioos:station:wmo:42045:1,2014-08-22T15:00:00Z,26.2168,-96.4998,2.0,55.33445636,18.4076207,-99999.0,'11111222,11111222,99999999' 
TABS,ioos:station:wmo:42045:1,2014-08-22T15:30:00Z,26.2168,-96.4998,2.0,61.44446875,15.83644531,-99999.0,'11111222,11111222,99999999' 
TABS,ioos:station:wmo:42045:1,2014-08-22T16:00:00Z,26.2168,-96.4998,2.0,61.87822059,18.43647743,-99999.0,'11111222,11111222,99999999' 
TABS,ioos:station:wmo:42045:1,2014-08-22T16:30:00Z,26.2168,-96.4998,2.0,68.2939526,15.62814128,-99999.0,'11111222,11111222,99999999' 
TABS,ioos:station:wmo:42045:1,2014-08-22T17:00:00Z,26.2168,-96.4998,2.0,65.86275831,15.30844538,-99999.0,'11111222,11111222,99999999' 
TABS,ioos:station:wmo:42045:1,2014-08-22T17:30:00Z,26.2168,-96.4998,2.0,66.01877174,15.47590708,-99999.0,'11111222,11111222,99999999' 
TABS,ioos:station:wmo:42045:1,2014-08-22T18:00:00Z,26.2168,-96.4998,2.0,67.6073982,14.93627129,-99999.0,'11111222,11111222,99999999' 
TABS,ioos:station:wmo:42045:1,2014-08-22T18:30:00Z,26.2168,-96.4998,2.0,72.82100093,12.69643257,-99999.0,'11111222,11111222,99999999' 
TABS,ioos:station:wmo:42045:1,2014-08-22T19:00:00Z,26.2168,-96.4998,2.0,66.82837573,11.18205706,-99999.0,'11111222,11111222,99999999' 
TABS,ioos:station:wmo:42045:1,2014-08-22T19:30:00Z,26.2168,-96.4998,2.0,48.89380368,8.122191822,-99999.0,'11133222,11111222,99999999' 
TABS,ioos:station:wmo:42045:1,2014-08-22T20:00:00Z,26.2168,-96.4998,2.0,54.10206009,6.838983843,-99999.0,'11133222,11111222,99999999' 
TABS,ioos:station:wmo:42045:1,2014-08-22T20:30:00Z,26.2168,-96.4998,2.0,40.60141016,6.177094786,-99999.0,'11133222,11111222,99999999' 
TABS,ioos:station:wmo:42045:1,2014-08-22T21:00:00Z,26.2168,-96.4998,2.0,16.42487611,4.597618949,-99999.0,'11133222,11111222,99999999' 
TABS,ioos:station:wmo:42045:1,2014-08-22T21:30:00Z,26.2168,-96.4998,2.0,0.357559124,4.810093554,-99999.0,'11133222,11111222,99999999' 
TABS,ioos:station:wmo:42045:1,2014-08-22T22:00:00Z,26.2168,-96.4998,2.0,351.7810204,1.818680841,-99999.0,'11133222,11111222,99999999' 
TABS,ioos:station:wmo:42045:1,2014-08-22T22:30:00Z,26.2168,-96.4998,2.0,318.5630441,5.575706233,-99999.0,'11133222,11111222,99999999' 
TABS,ioos:station:wmo:42045:1,2014-08-22T23:00:00Z,26.2168,-96.4998,2.0,306.4981879,7.700162336,-99999.0,'11133222,11111222,99999999' 
TABS,ioos:station:wmo:42045:1,2014-08-22T23:30:00Z,26.2168,-96.4998,2.0,300.3556438,10.012652,-99999.0,'11111222,11111222,99999999' 
TABS,ioos:station:wmo:42045:1,2014-08-23T00:00:00Z,26.2168,-96.4998,2.0,299.4370565,13.83627479,-99999.0,'11111222,11111222,99999999' 
TABS,ioos:station:wmo:42045:1,2014-08-23T00:30:00Z,26.2168,-96.4998,2.0,306.5113917,14.37028183,-99999.0,'11111222,11111222,99999999' 
TABS,ioos:station:wmo:42045:1,2014-08-23T01:00:00Z,26.2168,-96.4998,2.0,305.5783817,16.50019394,-99999.0,'11111222,11111222,99999999' 
TABS,ioos:station:wmo:42045:1,2014-08-23T01:30:00Z,26.2168,-96.4998,2.0,306.5192865,18.93835526,-99999.0,'11111222,11111222,99999999' 
TABS,ioos:station:wmo:42045:1,2014-08-23T02:00:00Z,26.2168,-96.4998,2.0,311.6138635,19.03319469,-99999.0,'11111222,11111222,99999999' 
TABS,ioos:station:wmo:42045:1,2014-08-23T02:30:00Z,26.2168,-96.4998,2.0,304.8672295,23.63243957,-99999.0,'11111222,11111222,99999999' 
TABS,ioos:station:wmo:42045:1,2014-08-23T03:00:00Z,26.2168,-96.4998,2.0,309.7254234,24.61255371,-99999.0,'11111222,11111222,99999999' 
TABS,ioos:station:wmo:42045:1,2014-08-23T03:30:00Z,26.2168,-96.4998,2.0,312.0426706,25.48979796,-99999.0,'11111222,11111222,99999999' 
TABS,ioos:station:wmo:42045:1,2014-08-23T04:00:00Z,26.2168,-96.4998,2.0,317.3946044,30.29769133,-99999.0,'11111222,11111222,99999999' 
TABS,ioos:station:wmo:42045:1,2014-08-23T04:30:00Z,26.2168,-96.4998,2.0,321.0803796,29.24071477,-99999.0,'11111222,11111222,99999999' 
TABS,ioos:station:wmo:42045:1,2014-08-23T05:00:00Z,26.2168,-96.4998,2.0,321.4630172,35.05484275,-99999.0,'11111222,11111222,99999999' 
TABS,ioos:station:wmo:42045:1,2014-08-23T05:30:00Z,26.2168,-96.4998,2.0,326.8200014,31.17261138,-99999.0,'11111222,11111222,99999999' 
TABS,ioos:station:wmo:42045:1,2014-08-23T06:00:00Z,26.2168,-96.4998,2.0,329.4550701,34.27662177,-99999.0,'11111222,11111222,99999999' 
TABS,ioos:station:wmo:42045:1,2014-08-23T06:30:00Z,26.2168,-96.4998,2.0,334.6676527,36.17900496,-99999.0,'11111222,11111222,99999999' 
TABS,ioos:station:wmo:42045:1,2014-08-23T07:00:00Z,26.2168,-96.4998,2.0,343.3591563,35.86199242,-99999.0,'11111222,11111222,99999999' 
TABS,ioos:station:wmo:42045:1,2014-08-23T07:30:00Z,26.2168,-96.4998,2.0,343.7301559,37.08520055,-99999.0,'11111222,11111222,99999999' 
TABS,ioos:station:wmo:42045:1,2014-08-23T08:00:00Z,26.2168,-96.4998,2.0,345.3661605,36.49389675,-99999.0,'11111222,11111222,99999999' 
TABS,ioos:station:wmo:42045:1,2014-08-23T08:30:00Z,26.2168,-96.4998,2.0,346.818937,39.33638138,-99999.0,'11111222,11111222,99999999' 
TABS,ioos:station:wmo:42045:1,2014-08-23T09:00:00Z,26.2168,-96.4998,2.0,354.1896463,37.63335887,-99999.0,'11111222,11111222,99999999' 
TABS,ioos:station:wmo:42045:1,2014-08-23T09:30:00Z,26.2168,-96.4998,2.0,356.788385,38.73083784,-99999.0,'11111222,11111222,99999999' 
TABS,ioos:station:wmo:42045:1,2014-08-23T10:00:00Z,26.2168,-96.4998,2.0,358.9675638,38.28621815,-99999.0,'11111222,11111222,99999999' 
TABS,ioos:station:wmo:42045:1,2014-08-23T10:30:00Z,26.2168,-96.4998,2.0,3.259983989,38.16174655,-99999.0,'11111222,11111222,99999999' 
TABS,ioos:station:wmo:42045:1,2014-08-23T11:00:00Z,26.2168,-96.4998,2.0,5.399784229,36.66268539,-99999.0,'11111222,11111222,99999999' 
TABS,ioos:station:wmo:42045:1,2014-08-23T11:30:00Z,26.2168,-96.4998,2.0,6.864335969,35.14188527,-99999.0,'11111222,11111222,99999999' 
TABS,ioos:station:wmo:42045:1,2014-08-23T12:00:00Z,26.2168,-96.4998,2.0,9.67773331,36.76316091,-99999.0,'11111222,11111222,99999999' 
TABS,ioos:station:wmo:42045:1,2014-08-23T12:30:00Z,26.2168,-96.4998,2.0,11.64292344,34.4385743,-99999.0,'11111222,11111222,99999999' 
TABS,ioos:station:wmo:42045:1,2014-08-23T13:00:00Z,26.2168,-96.4998,2.0,17.02888206,34.14707162,-99999.0,'11111222,11111222,99999999' 
TABS,ioos:station:wmo:42045:1,2014-08-23T13:30:00Z,26.2168,-96.4998,2.0,20.28379266,32.74029016,-99999.0,'11111222,11111222,99999999' 
TABS,ioos:station:wmo:42045:1,2014-08-23T14:00:00Z,26.2168,-96.4998,2.0,25.5475654,32.23129535,-99999.0,'11111222,11111222,99999999' 
TABS,ioos:station:wmo:42045:1,2014-08-23T14:30:00Z,26.2168,-96.4998,2.0,31.1254944,35.26710932,-99999.0,'11111222,11111222,99999999' 
TABS,ioos:station:wmo:42045:1,2014-08-23T15:00:00Z,26.2168,-96.4998,2.0,33.454787,31.72634552,-99999.0,'11111222,11111222,99999999' 
TABS,ioos:station:wmo:42045:1,2014-08-23T15:30:00Z,26.2168,-96.4998,2.0,33.48678356,30.46710029,-99999.0,'11111222,11111222,99999999' 
TABS,ioos:station:wmo:42045:1,2014-08-23T16:00:00Z,26.2168,-96.4998,2.0,32.75846228,28.3128681,-99999.0,'11111222,11111222,99999999' 
TABS,ioos:station:wmo:42045:1,2014-08-23T16:30:00Z,26.2168,-96.4998,2.0,32.18932133,27.42546627,-99999.0,'11111222,11111222,99999999' 
TABS,ioos:station:wmo:42045:1,2014-08-23T17:00:00Z,26.2168,-96.4998,2.0,29.50317602,25.56502689,-99999.0,'11111222,11111222,99999999' 
TABS,ioos:station:wmo:42045:1,2014-08-23T17:30:00Z,26.2168,-96.4998,2.0,37.32863668,24.73679244,-99999.0,'11111222,11111222,99999999' 
TABS,ioos:station:wmo:42045:1,2014-08-23T18:00:00Z,26.2168,-96.4998,2.0,35.80089171,26.58262779,-99999.0,'11111222,11111222,99999999' 
TABS,ioos:station:wmo:42045:1,2014-08-23T18:30:00Z,26.2168,-96.4998,2.0,35.51168384,22.94844875,-99999.0,'11111222,11111222,99999999' 
TABS,ioos:station:wmo:42045:1,2014-08-23T19:00:00Z,26.2168,-96.4998,2.0,40.68771729,25.20192453,-99999.0,'11111222,11111222,99999999' 
TABS,ioos:station:wmo:42045:1,2014-08-23T19:30:00Z,26.2168,-96.4998,2.0,37.22334803,20.4323885,-99999.0,'11111222,11111222,99999999' 
TABS,ioos:station:wmo:42045:1,2014-08-23T20:00:00Z,26.2168,-96.4998,2.0,35.14993258,21.12151746,-99999.0,'11111222,11111222,99999999' 
TABS,ioos:station:wmo:42045:1,2014-08-23T20:30:00Z,26.2168,-96.4998,2.0,31.85736398,18.03698423,-99999.0,'11111222,11111222,99999999' 
TABS,ioos:station:wmo:42045:1,2014-08-23T21:00:00Z,26.2168,-96.4998,2.0,32.14937656,18.15358091,-99999.0,'11111222,11111222,99999999' 
TABS,ioos:station:wmo:42045:1,2014-08-23T21:30:00Z,26.2168,-96.4998,2.0,28.1765947,16.85767481,-99999.0,'11111222,11111222,99999999' 
TABS,ioos:station:wmo:42045:1,2014-08-23T22:00:00Z,26.2168,-96.4998,2.0,26.65776106,13.84127884,-99999.0,'11111222,11111222,99999999' 
TABS,ioos:station:wmo:42045:1,2014-08-23T22:30:00Z,26.2168,-96.4998,2.0,25.36986877,11.57640704,-99999.0,'11111222,11111222,99999999' 
TABS,ioos:station:wmo:42045:1,2014-08-23T23:00:00Z,26.2168,-96.4998,2.0,14.71819006,11.41453459,-99999.0,'11111222,11111222,99999999' 
TABS,ioos:station:wmo:42045:1,2014-08-23T23:30:00Z,26.2168,-96.4998,2.0,41.44322916,6.496683769,-99999.0,'11133222,11111222,99999999' 
TABS,ioos:station:wmo:42045:1,2014-08-24T00:00:00Z,26.2168,-96.4998,2.0,351.9774377,9.816073553,-99999.0,'11133222,11111222,99999999' 
TABS,ioos:station:wmo:42045:1,2014-08-24T00:30:00Z,26.2168,-96.4998,2.0,346.8426985,6.326073032,-99999.0,'11133222,11111222,99999999' 
TABS,ioos:station:wmo:42045:1,2014-08-24T01:00:00Z,26.2168,-96.4998,2.0,326.7360983,5.597079596,-99999.0,'11133222,11111222,99999999' 
TABS,ioos:station:wmo:42045:1,2014-08-24T01:30:00Z,26.2168,-96.4998,2.0,337.8152716,5.2701518,-99999.0,'11133222,11111222,99999999' 
TABS,ioos:station:wmo:42045:1,2014-08-24T02:00:00Z,26.2168,-96.4998,2.0,310.2851113,9.032037422,-99999.0,'11133222,11111222,99999999' 
TABS,ioos:station:wmo:42045:1,2014-08-24T02:30:00Z,26.2168,-96.4998,2.0,303.5205614,8.420385977,-99999.0,'11133222,11111222,99999999' 
TABS,ioos:station:wmo:42045:1,2014-08-24T03:00:00Z,26.2168,-96.4998,2.0,298.6461704,10.34640034,-99999.0,'11111222,11111222,99999999' 
TABS,ioos:station:wmo:42045:1,2014-08-24T03:30:00Z,26.2168,-96.4998,2.0,297.8839021,13.02183551,-99999.0,'11111222,11111222,99999999' 
TABS,ioos:station:wmo:42045:1,2014-08-24T04:00:00Z,26.2168,-96.4998,2.0,292.3295245,18.95101317,-99999.0,'11111222,11111222,99999999' 
TABS,ioos:station:wmo:42045:1,2014-08-24T04:30:00Z,26.2168,-96.4998,2.0,295.3815824,20.99668783,-99999.0,'11111222,11111222,99999999' 
TABS,ioos:station:wmo:42045:1,2014-08-24T05:00:00Z,26.2168,-96.4998,2.0,299.5196239,22.99497771,-99999.0,'11111222,11111222,99999999' 
TABS,ioos:station:wmo:42045:1,2014-08-24T05:30:00Z,26.2168,-96.4998,2.0,303.8570009,26.70892735,-99999.0,'11111222,11111222,99999999' 
TABS,ioos:station:wmo:42045:1,2014-08-24T06:00:00Z,26.2168,-96.4998,2.0,311.8277215,27.98067369,-99999.0,'11111222,11111222,99999999' 
TABS,ioos:station:wmo:42045:1,2014-08-24T06:30:00Z,26.2168,-96.4998,2.0,318.1772975,31.64216175,-99999.0,'11111222,11111222,99999999' 
TABS,ioos:station:wmo:42045:1,2014-08-24T07:00:00Z,26.2168,-96.4998,2.0,317.6195388,33.11304879,-99999.0,'11111222,11111222,99999999' 
TABS,ioos:station:wmo:42045:1,2014-08-24T07:30:00Z,26.2168,-96.4998,2.0,319.1219547,33.64630738,-99999.0,'11111222,11111222,99999999' 
TABS,ioos:station:wmo:42045:1,2014-08-24T08:00:00Z,26.2168,-96.4998,2.0,326.6495397,35.12423238,-99999.0,'11111222,11111222,99999999' 
TABS,ioos:station:wmo:42045:1,2014-08-24T08:30:00Z,26.2168,-96.4998,2.0,331.277217,37.76714048,-99999.0,'11111222,11111222,99999999' 
TABS,ioos:station:wmo:42045:1,2014-08-24T09:00:00Z,26.2168,-96.4998,2.0,335.4899004,41.41177127,-99999.0,'11111222,11111222,99999999' 
TABS,ioos:station:wmo:42045:1,2014-08-24T09:30:00Z,26.2168,-96.4998,2.0,334.4644838,41.82569187,-99999.0,'11111222,11111222,99999999' 
TABS,ioos:station:wmo:42045:1,2014-08-24T10:00:00Z,26.2168,-96.4998,2.0,341.9575279,42.03714191,-99999.0,'11111222,11111222,99999999' 
TABS,ioos:station:wmo:42045:1,2014-08-24T10:30:00Z,26.2168,-96.4998,2.0,347.2918178,41.86561477,-99999.0,'11111222,11111222,99999999' 
TABS,ioos:station:wmo:42045:1,2014-08-24T11:00:00Z,26.2168,-96.4998,2.0,348.0105194,40.00266241,-99999.0,'11111222,11111222,99999999' 
TABS,ioos:station:wmo:42045:1,2014-08-24T11:30:00Z,26.2168,-96.4998,2.0,351.8282808,40.6628934,-99999.0,'11111222,11111222,99999999' 
TABS,ioos:station:wmo:42045:1,2014-08-24T12:00:00Z,26.2168,-96.4998,2.0,352.7582772,37.68059049,-99999.0,'11111222,11111222,99999999' 
TABS,ioos:station:wmo:42045:1,2014-08-24T12:30:00Z,26.2168,-96.4998,2.0,354.8447493,38.61622069,-99999.0,'11111222,11111222,99999999' 
TABS,ioos:station:wmo:42045:1,2014-08-24T13:00:00Z,26.2168,-96.4998,2.0,359.6755489,37.06059498,-99999.0,'11111222,11144222,99999999' 
TABS,ioos:station:wmo:42045:1,2014-08-24T13:30:00Z,26.2168,-96.4998,2.0,4.361515439,37.6089032,-99999.0,'11111222,11111222,99999999' 
TABS,ioos:station:wmo:42045:1,2014-08-24T14:00:00Z,26.2168,-96.4998,2.0,3.853521375,36.90342532,-99999.0,'11111222,11111222,99999999' 
TABS,ioos:station:wmo:42045:1,2014-08-24T14:30:00Z,26.2168,-96.4998,2.0,5.747132852,37.64922974,-99999.0,'11111222,11111222,99999999' 
TABS,ioos:station:wmo:42045:1,2014-08-24T15:00:00Z,26.2168,-96.4998,2.0,9.924477991,36.09003879,-99999.0,'11111222,11111222,99999999' 
TABS,ioos:station:wmo:42045:1,2014-08-24T15:30:00Z,26.2168,-96.4998,2.0,11.19976764,36.65809597,-99999.0,'11111222,11111222,99999999' 
TABS,ioos:station:wmo:42045:1,2014-08-24T16:00:00Z,26.2168,-96.4998,2.0,13.60734781,36.59722667,-99999.0,'11111222,11111222,99999999' 
TABS,ioos:station:wmo:42045:1,2014-08-24T16:30:00Z,26.2168,-96.4998,2.0,18.2103902,37.08747767,-99999.0,'11111222,11111222,99999999' 
TABS,ioos:station:wmo:42045:1,2014-08-24T17:00:00Z,26.2168,-96.4998,2.0,19.12249045,36.11264737,-99999.0,'11111222,11111222,99999999' 
TABS,ioos:station:wmo:42045:1,2014-08-24T17:30:00Z,26.2168,-96.4998,2.0,25.413645,33.60147169,-99999.0,'11111222,11111222,99999999' 
TABS,ioos:station:wmo:42045:1,2014-08-24T18:00:00Z,26.2168,-96.4998,2.0,27.84713688,32.58319352,-99999.0,'11111222,11111222,99999999' 
TABS,ioos:station:wmo:42045:1,2014-08-24T18:30:00Z,26.2168,-96.4998,2.0,30.11318391,28.76176803,-99999.0,'11111222,11111222,99999999' 
TABS,ioos:station:wmo:42045:1,2014-08-24T19:00:00Z,26.2168,-96.4998,2.0,31.7762938,27.819867,-99999.0,'11111222,11111222,99999999' 
TABS,ioos:station:wmo:42045:1,2014-08-24T19:30:00Z,26.2168,-96.4998,2.0,35.42988581,27.77277264,-99999.0,'11111222,11111222,99999999' 
TABS,ioos:station:wmo:42045:1,2014-08-24T20:00:00Z,26.2168,-96.4998,2.0,42.05116304,27.35175497,-99999.0,'11111222,11111222,99999999' 
TABS,ioos:station:wmo:42045:1,2014-08-24T20:30:00Z,26.2168,-96.4998,2.0,44.54921258,26.05769176,-99999.0,'11111222,11111222,99999999' 
TABS,ioos:station:wmo:42045:1,2014-08-24T21:00:00Z,26.2168,-96.4998,2.0,44.96478116,22.93854834,-99999.0,'11111222,11111222,99999999' 
TABS,ioos:station:wmo:42045:1,2014-08-24T21:30:00Z,26.2168,-96.4998,2.0,45.03650652,22.25972596,-99999.0,'11111222,11111222,99999999' 
TABS,ioos:station:wmo:42045:1,2014-08-24T22:00:00Z,26.2168,-96.4998,2.0,49.0005691,19.66305165,-99999.0,'11111222,11111222,99999999' 
TABS,ioos:station:wmo:42045:1,2014-08-24T22:30:00Z,26.2168,-96.4998,2.0,46.23778157,18.33248483,-99999.0,'11111222,11111222,99999999' 
TABS,ioos:station:wmo:42045:1,2014-08-24T23:00:00Z,26.2168,-96.4998,2.0,39.61080607,13.55150176,-99999.0,'11111222,11111222,99999999' 
TABS,ioos:station:wmo:42045:1,2014-08-24T23:30:00Z,26.2168,-96.4998,2.0,41.70890937,9.48380198,-99999.0,'11133222,11111222,99999999' 
TABS,ioos:station:wmo:42045:1,2014-08-25T00:00:00Z,26.2168,-96.4998,2.0,59.39730976,9.526935499,-99999.0,'11133222,11111222,99999999' 
TABS,ioos:station:wmo:42045:1,2014-08-25T00:30:00Z,26.2168,-96.4998,2.0,61.6355391,6.693616362,-99999.0,'11133222,11111222,99999999' 
TABS,ioos:station:wmo:42045:1,2014-08-25T01:00:00Z,26.2168,-96.4998,2.0,72.66547558,5.269326333,-99999.0,'11133222,11111222,99999999' 
TABS,ioos:station:wmo:42045:1,2014-08-25T01:30:00Z,26.2168,-96.4998,2.0,46.37808525,2.058275978,-99999.0,'11133222,11111222,99999999' 
TABS,ioos:station:wmo:42045:1,2014-08-25T02:00:00Z,26.2168,-96.4998,2.0,141.0088867,2.161480974,-99999.0,'11133222,11111222,99999999' 
TABS,ioos:station:wmo:42045:1,2014-08-25T02:30:00Z,26.2168,-96.4998,2.0,307.2082558,2.034035398,-99999.0,'11133222,11111222,99999999' 
TABS,ioos:station:wmo:42045:1,2014-08-25T03:00:00Z,26.2168,-96.4998,2.0,297.3666954,3.197889929,-99999.0,'11133222,11111222,99999999' 
TABS,ioos:station:wmo:42045:1,2014-08-25T03:30:00Z,26.2168,-96.4998,2.0,275.6992066,4.833890772,-99999.0,'11133222,11111222,99999999' 
TABS,ioos:station:wmo:42045:1,2014-08-25T04:00:00Z,26.2168,-96.4998,2.0,280.4395616,8.775249284,-99999.0,'11133222,11111222,99999999' 
TABS,ioos:station:wmo:42045:1,2014-08-25T04:30:00Z,26.2168,-96.4998,2.0,292.6915701,11.12077785,-99999.0,'11111222,11111222,99999999' 
TABS,ioos:station:wmo:42045:1,2014-08-25T05:00:00Z,26.2168,-96.4998,2.0,284.9794999,15.47586831,-99999.0,'11111222,11111222,99999999' 
TABS,ioos:station:wmo:42045:1,2014-08-25T05:30:00Z,26.2168,-96.4998,2.0,288.7498147,15.55547813,-99999.0,'11111222,11111222,99999999' 
TABS,ioos:station:wmo:42045:1,2014-08-25T06:00:00Z,26.2168,-96.4998,2.0,287.3206842,17.23134934,-99999.0,'11111222,11111222,99999999' 
TABS,ioos:station:wmo:42045:1,2014-08-25T06:30:00Z,26.2168,-96.4998,2.0,290.0530022,19.71517182,-99999.0,'11111222,11111222,99999999' 
TABS,ioos:station:wmo:42045:1,2014-08-25T07:00:00Z,26.2168,-96.4998,2.0,294.2443821,20.87069237,-99999.0,'11111222,11111222,99999999' 
TABS,ioos:station:wmo:42045:1,2014-08-25T07:30:00Z,26.2168,-96.4998,2.0,302.8101156,19.85783724,-99999.0,'11111222,11111222,99999999' 
TABS,ioos:station:wmo:42045:1,2014-08-25T08:00:00Z,26.2168,-96.4998,2.0,303.418066,21.58917553,-99999.0,'11111222,11111222,99999999' 
TABS,ioos:station:wmo:42045:1,2014-08-25T08:30:00Z,26.2168,-96.4998,2.0,309.1571193,23.40664222,-99999.0,'11111222,11111222,99999999' 
TABS,ioos:station:wmo:42045:1,2014-08-25T09:00:00Z,26.2168,-96.4998,2.0,307.5197732,24.87559849,-99999.0,'11111222,11111222,99999999' 
TABS,ioos:station:wmo:42045:1,2014-08-25T09:30:00Z,26.2168,-96.4998,2.0,311.2538879,26.29692948,-99999.0,'11111222,11111222,99999999' 
TABS,ioos:station:wmo:42045:1,2014-08-25T10:00:00Z,26.2168,-96.4998,2.0,318.1065688,26.88126857,-99999.0,'11111222,11111222,99999999' 
TABS,ioos:station:wmo:42045:1,2014-08-25T10:30:00Z,26.2168,-96.4998,2.0,322.7818299,25.64247453,-99999.0,'11111222,11111222,99999999' 
TABS,ioos:station:wmo:42045:1,2014-08-25T11:00:00Z,26.2168,-96.4998,2.0,327.8831756,27.17945732,-99999.0,'11111222,11111222,99999999' 
TABS,ioos:station:wmo:42045:1,2014-08-25T11:30:00Z,26.2168,-96.4998,2.0,327.2781659,23.64192251,-99999.0,'11111222,11111222,99999999' 
TABS,ioos:station:wmo:42045:1,2014-08-25T12:00:00Z,26.2168,-96.4998,2.0,332.2436149,28.3863136,-99999.0,'11111222,11111222,99999999' 
TABS,ioos:station:wmo:42045:1,2014-08-25T12:30:00Z,26.2168,-96.4998,2.0,338.3134431,26.92587789,-99999.0,'11111222,11111222,99999999' 
TABS,ioos:station:wmo:42045:1,2014-08-25T13:00:00Z,26.2168,-96.4998,2.0,338.3959774,29.68543245,-99999.0,'11111222,11111222,99999999' 
TABS,ioos:station:wmo:42045:1,2014-08-25T13:30:00Z,26.2168,-96.4998,2.0,340.5416874,27.43713724,-99999.0,'11111222,11111222,99999999' 
TABS,ioos:station:wmo:42045:1,2014-08-25T14:00:00Z,26.2168,-96.4998,2.0,348.0023418,28.09370036,-99999.0,'11111222,11111222,99999999' 
TABS,ioos:station:wmo:42045:1,2014-08-25T14:30:00Z,26.2168,-96.4998,2.0,351.2482289,29.83742114,-99999.0,'11111222,11111222,99999999' 
TABS,ioos:station:wmo:42045:1,2014-08-25T15:00:00Z,26.2168,-96.4998,2.0,355.8547492,29.32672672,-99999.0,'11111222,11111222,99999999' 
TABS,ioos:station:wmo:42045:1,2014-08-25T15:30:00Z,26.2168,-96.4998,2.0,359.7711124,27.51021992,-99999.0,'11111222,11144222,99999999' 
TABS,ioos:station:wmo:42045:1,2014-08-25T16:00:00Z,26.2168,-96.4998,2.0,2.966473395,25.89469444,-99999.0,'11111222,11111222,99999999' 